This demonstration page uses our WeatherBlox Daily Observations layout. Learn more.

Hourly Observations for August 1, 2018

Temp ( °F °C ) Dew Point ( °F °C ) Humidity (%) Winds ( mph kmh ) Pressure ( in mb ) Visibility ( mi km ) Precip ( " mm )
12:15 am 00:15 Clear 61 16.3 55 12.8 80 80 Calm 30.06 1018 10 16.09344 0 0
12:35 am 00:35 Clear 59 14.9 55 12.5 86 86 Calm 30.06 1018 10 16.09344 0 0
12:55 am 00:55 Clear 60 15.8 55 12.9 83 83 S 3 6 30.06 1018 10 16.09344 0 0
1:15 am 01:15 Clear 62 16.4 55 13 80 80 SSW 5 7 30.06 1018 10 16.09344 0 0
1:35 am 01:35 Clear 62 16.5 56 13.2 81 81 SSW 6 9 30.06 1018 10 16.09344 0 0
1:55 am 01:55 Clear 61 16.3 56 13.3 83 83 SSW 5 7 30.06 1018 10 16.09344 0 0
2:15 am 02:15 Clear 61 16.1 56 13.3 84 84 SSW 5 7 30.06 1018 10 16.09344 0 0
2:35 am 02:35 Clear 60 15.8 56 13.1 84 84 SW 6 9 30.06 1018 10 16.09344 0 0
2:55 am 02:55 Clear 60 15.5 56 13.3 87 87 SW 5 7 30.06 1018 10 16.09344 0 0
3:15 am 03:15 Clear 59 15.2 56 13.4 89 89 SW 5 7 30.06 1018 10 16.09344 0 0
3:35 am 03:35 Clear 60 15.5 56 13.5 88 88 SW 6 9 30.06 1018 10 16.09344 0 0
3:55 am 03:55 Clear 59 15.1 56 13.4 90 90 SW 6 9 30.06 1018 10 16.09344 0 0
4:15 am 04:15 Clear 59 15.1 56 13.5 90 90 SW 6 9 30.06 1018 10 16.09344 0 0
4:35 am 04:35 Clear 59 15.1 56 13.5 90 90 SSW 5 7 30.06 1018 10 16.09344 0 0
4:55 am 04:55 Clear 60 15.5 56 13.5 88 88 SSW 6 9 30.06 1018 10 16.09344 0 0
5:15 am 05:15 Clear 60 15.4 56 13.2 87 87 SSW 6 9 30.06 1018 10 16.09344 0 0
5:35 am 05:35 Clear 59 15.1 56 13.3 89 89 SSW 5 7 30.06 1018 10 16.09344 0 0
5:55 am 05:55 Clear 59 15.1 56 13.2 89 89 S 5 7 30.06 1018 10 16.09344 0 0
6:15 am 06:15 Clear 59 14.9 56 13.1 89 89 Calm 30.06 1018 10 16.09344 0 0
6:35 am 06:35 Sunny 58 14.5 55 13 91 91 Calm 30.06 1018 10 16.09344 0 0
6:55 am 06:55 Sunny 58 14.5 56 13.1 91 91 SSW 3 6 30.03 1017 10 16.09344 0 0
7:15 am 07:15 Sunny 59 14.8 56 13.3 91 91 S 3 6 30.06 1018 10 16.09344 0 0
7:35 am 07:35 Sunny 60 15.3 56 13.5 89 89 SSW 6 9 30.03 1017 10 16.09344 0 0
7:55 am 07:55 Sunny 61 16 57 14.1 89 89 SW 3 6 30.06 1018 10 16.09344 0 0
8:15 am 08:15 Sunny 63 17 58 14.6 86 86 Calm 30.03 1017 10 16.09344 0 0
8:35 am 08:35 Sunny 65 18.2 59 14.9 81 81 SW 3 6 30.03 1017 10 16.09344 0 0
8:55 am 08:55 Sunny 66 18.7 59 15 79 79 SW 5 7 30.03 1017 10 16.09344 0 0
9:15 am 09:15 Sunny 67 19.6 60 15.3 76 76 WSW 6 9 30.03 1017 10 16.09344 0 0
9:35 am 09:35 Sunny 69 20.7 60 15.4 72 72 W 6 9 30 1016 10 16.09344 0 0
9:55 am 09:55 Sunny 70 21.3 60 15.4 69 69 W 8 13 30 1016 10 16.09344 0 0
10:15 am 10:15 Sunny 72 22.2 60 15.7 67 67 W 8 13 30 1016 10 16.09344 0 0
10:35 am 10:35 Sunny 74 23.1 61 16.3 66 66 WSW 8 13 30 1016 10 16.09344 0 0
10:55 am 10:55 Sunny 75 23.7 61 16 62 62 W 8 13 30 1016 10 16.09344 0 0
11:15 am 11:15 Sunny 75 24.1 62 16.6 63 63 W 8 13 29.94 1014 10 16.09344 0 0
11:35 am 11:35 Sunny 77 24.8 62 16.8 61 61 WSW 8 13 29.97 1015 10 16.09344 0 0
11:55 am 11:55 Sunny 78 25.5 64 17.6 62 62 WSW 6 9 29.97 1015 10 16.09344 0 0
12:15 pm 12:15 Sunny 78 25.8 64 17.8 61 61 W 6 9 29.97 1015 10 16.09344 0 0
12:35 pm 12:35 Sunny 79 25.9 64 17.7 61 61 SW 6 9 29.94 1014 10 16.09344 0 0
12:55 pm 12:55 Sunny 80 26.5 64 17.7 59 59 WSW 7 11 29.94 1014 10 16.09344 0 0
1:15 pm 13:15 Sunny 81 27.1 63 17.4 55 55 WSW 8 13 29.94 1014 10 16.09344 0 0
1:35 pm 13:35 Sunny 80 26.5 64 17.5 58 58 SW 7 11 29.94 1014 10 16.09344 0 0
1:55 pm 13:55 Sunny 82 27.6 65 18.2 57 57 WSW 8 13 29.91 1013 10 16.09344 0 0
2:15 pm 14:15 Sunny 82 28 65 18.6 57 57 SW 8 13 29.91 1013 10 16.09344 0 0
2:35 pm 14:35 Sunny 83 28.2 64 17.9 54 54 SW 6 9 29.91 1013 10 16.09344 0 0
2:55 pm 14:55 Sunny 83 28.1 63 17.4 52 52 WSW 8 13 29.91 1013 10 16.09344 0 0
3:15 pm 15:15 Sunny 83 28.5 64 17.9 53 53 SW 5 7 29.91 1013 10 16.09344 0 0
3:35 pm 15:35 Sunny 84 29 64 17.5 50 50 SW 8 13 29.91 1013 10 16.09344 0 0
3:55 pm 15:55 Sunny 84 29 63 17.3 49 49 SW 7 11 29.88 1012 10 16.09344 0 0
4:15 pm 16:15 Sunny 84 29.1 64 17.7 50 50 SSW 8 13 29.88 1012 10 16.09344 0 0
4:35 pm 16:35 Sunny 84 29 63 17.3 49 49 S 5 7 29.88 1012 10 16.09344 0 0
4:55 pm 16:55 Sunny 85 29.4 63 17.3 48 48 SSW 6 9 29.88 1012 10 16.09344 0 0
5:15 pm 17:15 Sunny 84 29 64 18 51 51 S 5 7 29.88 1012 10 16.09344 0 0
5:35 pm 17:35 Sunny 85 29.2 63 17.3 49 49 SW 5 7 29.88 1012 10 16.09344 0 0
5:55 pm 17:55 Sunny 84 29.1 64 17.5 50 50 SW 3 6 29.88 1012 10 16.09344 0 0
6:15 pm 18:15 Sunny 85 29.2 64 17.5 49 49 SSW 6 9 29.88 1012 10 16.09344 0 0
6:35 pm 18:35 Sunny 84 28.7 63 17.4 50 50 SSW 5 7 29.88 1012 10 16.09344 0 0
6:55 pm 18:55 Sunny 84 28.7 65 18.1 53 53 SSW 7 11 29.88 1012 10 16.09344 0 0
7:15 pm 19:15 Sunny 83 28.3 64 17.5 52 52 SSW 7 11 29.88 1012 10 16.09344 0 0
7:35 pm 19:35 Sunny 81 27.4 65 18.2 57 57 SSW 5 7 29.88 1012 10 16.09344 0 0
7:55 pm 19:55 Sunny 80 26.6 65 18.4 61 61 SSW 6 9 29.91 1013 10 16.09344 0 0
8:15 pm 20:15 Sunny 78 25.4 64 17.7 62 62 SW 5 7 29.91 1013 10 16.09344 0 0
8:35 pm 20:35 Sunny 77 24.8 64 17.7 65 65 SSW 5 7 29.91 1013 10 16.09344 0 0
8:55 pm 20:55 Clear 75 23.7 64 18 71 71 SW 3 6 29.91 1013 10 16.09344 0 0
9:15 pm 21:15 Clear 74 23.1 65 18.2 74 74 SSW 3 6 29.94 1014 10 16.09344 0 0
9:35 pm 21:35 Clear 73 22.9 64 17.8 73 73 SSW 3 6 29.94 1014 10 16.09344 0 0
9:55 pm 21:55 Clear 70 21.2 64 17.6 80 80 Calm 29.94 1014 10 16.09344 0 0
10:15 pm 22:15 Clear 71 21.7 63 17.2 76 76 Calm 29.94 1014 10 16.09344 0 0
10:35 pm 22:35 Clear 71 21.6 62 16.8 74 74 SSW 6 9 29.94 1014 10 16.09344 0 0
10:55 pm 22:55 Clear 71 21.5 62 16.5 73 73 SSW 6 9 29.94 1014 10 16.09344 0 0
11:15 pm 23:15 Clear 70 21 61 16 73 73 SSW 6 9 29.94 1014 10 16.09344 0 0
11:35 pm 23:35 Clear 69 20.6 61 16.1 76 76 S 6 9 29.94 1014 10 16.09344 0 0
11:55 pm 23:55 Clear 68 20.1 61 16.1 78 78 SSW 6 9 29.94 1014 10 16.09344 0 0

Powered by AerisWeather